Back to catalog

ONEWEB-0450

AliveCommunicationsPO
NORAD 50504·PAYLOAD·🇬🇧 United Kingdom

Launched Dec 27, 2021 from Baikonur Cosmodrome

Loading…

Next Passes (next 24 hours)

TLE

FreshSource: CelesTrak SupGP

Epoch: Sep 14, 2026, 12:27 UTC

1 50504C 21132AM  26257.51889306  .00002290  00000+0  58157-2 0  2572
2 50504  87.9161 317.7066 0001917  94.2561  14.6985 13.18681920    16

Track ONEWEB-0450 in real time with AllMySat

Download on the App Store